DW8824 Weather Reports


Display with metric or nautical units.
time (UTC)temp
F
wind
direction
speed
MPH
gust
MPH
rain 1hr
in
rain 24hr
in
rain mn
in
humidity
%
barometer
mb
20260506172904 75 119 0.0 5.0 0.00 0.00 0.00 87 1016.5
20260506171904 75 100 0.0 0.0 0.00 0.00 0.00 87 1016.5
20260506171404 75 158 0.0 3.0 0.00 0.00 0.00 87 1016.5
20260506170904 75 163 0.0 0.0 0.00 0.00 0.00 87 1016.5
20260506170404 75 165 0.0 0.0 0.00 0.00 0.00 87 1016.5
20260506165904 75 145 0.0 0.0 0.00 0.00 0.00 87 1016.5
20260506165404 75 145 0.0 0.0 0.00 0.00 0.00 87 1016.4
20260506164904 75 175 0.0 0.0 0.00 0.00 0.00 87 1016.4
20260506164404 75 182 0.0 0.0 0.00 0.00 0.00 87 1016.3
20260506163404 75 128 0.0 0.0 0.00 0.00 0.00 86 1016.2
20260506162404 75 161 0.0 1.0 0.00 0.00 0.00 86 1016.2
20260506161904 75 144 0.0 0.0 0.00 0.00 0.00 86 1016.2
20260506160904 76 161 0.0 5.0 0.00 0.00 0.00 85 1016.1
20260506160404 76 124 0.0 0.0 0.00 0.00 0.00 85 1016.1
20260506155904 76 186 0.0 1.0 0.00 0.00 0.00 85 1016.1
20260506154903 76 121 0.0 6.0 0.00 0.00 0.00 85 1016.1
20260506154404 76 150 1.0 6.0 0.00 0.00 0.00 85 1016.0
20260506153904 77 131 0.0 0.0 0.00 0.00 0.00 84 1015.9
20260506152904 77 91 0.0 3.0 0.00 0.00 0.00 84 1015.8
20260506152404 77 123 0.0 3.0 0.00 0.00 0.00 84 1015.7
20260506151904 77 97 0.0 5.0 0.00 0.00 0.00 83 1015.5
20260506151404 77 120 0.0 1.0 0.00 0.00 0.00 83 1015.4
20260506150904 77 159 0.0 3.0 0.00 0.00 0.00 83 1015.4
20260506150404 77 129 0.0 0.0 0.00 0.00 0.00 82 1015.4
20260506145904 78 109 0.0 0.0 0.00 0.00 0.00 82 1015.4
20260506145404 78 103 0.0 3.0 0.00 0.00 0.00 82 1015.3
20260506144905 78 101 1.0 3.0 0.00 0.00 0.00 82 1015.3
20260506144404 78 68 1.0 3.0 0.00 0.00 0.00 82 1015.3
20260506143904 78 124 1.0 7.0 0.00 0.00 0.00 82 1015.2
20260506143404 78 106 1.0 5.0 0.00 0.00 0.00 82 1015.2
20260506142904 78 99 0.0 1.0 0.00 0.00 0.00 81 1015.2
20260506142404 78 127 0.0 3.0 0.00 0.00 0.00 81 1015.1
20260506141905 78 91 0.0 0.0 0.00 0.00 0.00 81 1015.1
20260506141404 78 103 1.0 7.0 0.00 0.00 0.00 80 1015.0
20260506140904 78 126 0.0 6.0 0.00 0.00 0.00 80 1014.9
20260506140404 78 91 1.0 3.0 0.00 0.00 0.00 80 1014.8
20260506135904 78 101 0.0 3.0 0.00 0.00 0.00 79 1014.8
20260506135404 78 76 1.0 6.0 0.00 0.00 0.00 79 1014.8
20260506134904 79 94 1.0 8.0 0.00 0.00 0.00 79 1014.7
20260506134404 79 63 1.0 7.0 0.00 0.00 0.00 79 1014.7
20260506133904 79 107 5.0 12.0 0.00 0.00 0.00 78 1014.6
20260506133404 79 117 1.0 12.0 0.00 0.00 0.00 79 1014.5
20260506132904 79 102 2.0 9.0 0.00 0.00 0.00 78 1014.5
20260506131905 80 50 1.0 10.0 0.00 0.00 0.00 77 1014.5
20260506131404 80 94 2.0 9.0 0.00 0.00 0.00 77 1014.5
20260506130904 80 123 1.0 8.0 0.00 0.00 0.00 76 1014.4
20260506130405 80 86 2.0 9.0 0.00 0.00 0.00 77 1014.4
20260506125903 80 106 3.0 10.0 0.00 0.00 0.00 77 1014.4
20260506125404 80 98 1.0 9.0 0.00 0.00 0.00 77 1014.3
20260506124904 80 105 3.0 10.0 0.00 0.00 0.00 76 1014.3
20260506123904 80 124 2.0 13.0 0.00 0.00 0.00 76 1014.2
20260506122904 81 90 5.0 12.0 0.00 0.00 0.00 75 1014.2
20260506122404 81 85 4.0 12.0 0.00 0.00 0.00 76 1014.2
20260506121904 81 125 3.0 15.0 0.00 0.00 0.00 76 1014.2
20260506121404 81 87 5.0 12.0 0.00 0.00 0.00 75 1014.1
20260506120904 81 93 5.0 12.0 0.00 0.00 0.00 75 1014.1
20260506120404 81 110 2.0 15.0 0.00 0.00 0.00 74 1014.1
20260506115904 81 71 6.0 12.0 0.00 0.00 0.00 75 1014.1
20260506115404 81 109 7.0 14.0 0.00 0.00 0.00 73 1014.1
20260506114904 81 88 4.0 12.0 0.00 0.00 0.00 74 1014.1
20260506114404 82 135 5.0 10.0 0.00 0.00 0.00 75 1014.0
20260506113904 82 62 2.0 12.0 0.00 0.00 0.00 75 1014.0
20260506112904 81 96 5.0 10.0 0.00 0.00 0.00 74 1014.0
20260506112404 81 79 4.0 12.0 0.00 0.00 0.00 75 1013.9
20260506111904 81 93 5.0 12.0 0.00 0.00 0.00 76 1014.0
20260506111404 82 101 2.0 14.0 0.00 0.00 0.00 75 1013.9
20260506110403 81 124 6.0 13.0 0.00 0.00 0.00 77 1013.9
20260506105905 81 114 3.0 12.0 0.00 0.00 0.00 78 1013.9
20260506105404 80 94 3.0 13.0 0.00 0.00 0.00 78 1013.9
20260506104904 81 126 5.0 12.0 0.00 0.00 0.00 77 1013.9
20260506104404 82 85 7.0 13.0 0.00 0.00 0.00 76 1013.9
20260506103904 82 121 2.0 12.0 0.00 0.00 0.00 76 1013.9
20260506103404 82 71 3.0 12.0 0.00 0.00 0.00 74 1013.8
20260506102904 82 77 5.0 13.0 0.00 0.00 0.00 75 1013.8
20260506101905 82 115 6.0 14.0 0.00 0.00 0.00 75 1013.8
20260506101403 83 113 5.0 12.0 0.00 0.00 0.00 73 1013.9
20260506100904 83 122 2.0 15.0 0.00 0.00 0.00 73 1013.9
20260506100404 83 87 4.0 12.0 0.00 0.00 0.00 73 1014.0
20260506095905 82 117 8.0 13.0 0.00 0.00 0.00 72 1014.1
20260506095404 82 73 9.0 13.0 0.00 0.00 0.00 71 1014.3
20260506094904 82 105 5.0 12.0 0.00 0.00 0.00 69 1014.3
20260506094403 82 99 5.0 14.0 0.00 0.00 0.00 71 1014.4
20260506093904 82 75 4.0 9.0 0.00 0.00 0.00 74 1014.4
20260506093403 81 66 4.0 12.0 0.00 0.00 0.00 73 1014.4
20260506092904 81 90 4.0 10.0 0.00 0.00 0.00 75 1014.6
20260506092404 81 83 7.0 14.0 0.00 0.00 0.00 74 1014.6
20260506091904 82 73 5.0 9.0 0.00 0.00 0.00 74 1014.5
20260506090904 82 157 3.0 12.0 0.00 0.00 0.00 74 1014.7
20260506090404 82 105 5.0 12.0 0.00 0.00 0.00 74 1014.7
20260506085404 82 66 4.0 12.0 0.00 0.00 0.00 73 1014.8
20260506084904 82 57 5.0 14.0 0.00 0.00 0.00 71 1014.9
20260506083904 82 98 6.0 15.0 0.00 0.00 0.00 72 1014.9
20260506082404 82 80 4.0 13.0 0.00 0.00 0.00 74 1015.1
20260506081904 81 90 5.0 12.0 0.00 0.00 0.00 74 1015.2
20260506081405 81 118 6.0 14.0 0.00 0.00 0.00 75 1015.2
20260506080904 81 102 5.0 12.0 0.00 0.00 0.00 74 1015.2
20260506080404 81 122 9.0 13.0 0.00 0.00 0.00 75 1015.2
20260506073403 82 71 1.0 10.0 0.00 0.00 0.00 76 1015.6
20260506072905 81 97 2.0 12.0 0.00 0.00 0.00 77 1015.6
20260506072404 81 81 6.0 12.0 0.00 0.00 0.00 76 1015.6
20260506071904 81 91 7.0 14.0 0.00 0.00 0.00 75 1015.7
20260506071403 82 87 7.0 17.0 0.00 0.00 0.00 75 1015.7
20260506070904 82 94 6.0 13.0 0.00 0.00 0.00 74 1015.8
20260506061904 82 105 3.0 14.0 0.00 0.00 0.00 75 1016.3
20260506061404 81 75 7.0 15.0 0.00 0.00 0.00 75 1016.4
20260506060904 81 100 5.0 18.0 0.00 0.00 0.00 75 1016.4
20260506060404 81 78 7.0 16.0 0.00 0.00 0.00 75 1016.4
20260506051404 81 78 6.0 15.0 0.00 0.00 0.00 77 1016.7
20260506050904 80 115 4.0 12.0 0.00 0.00 0.00 78 1016.7
20260506050404 80 71 5.0 14.0 0.00 0.00 0.00 77 1016.7
20260506044904 80 95 5.0 13.0 0.00 0.00 0.00 78 1016.7
20260506044404 80 107 5.0 12.0 0.00 0.00 0.00 77 1016.7
20260506043904 80 87 5.0 14.0 0.00 0.00 0.00 79 1016.7
20260506042404 80 85 2.0 9.0 0.00 0.00 0.00 78 1016.6
20260506041904 80 91 5.0 10.0 0.00 0.00 0.00 78 1016.5
20260506041404 79 104 2.0 10.0 0.00 0.00 0.00 80 1016.5
20260506040904 79 105 4.0 13.0 0.00 0.00 0.00 79 1016.5
20260506035903 79 113 5.0 10.0 0.00 0.00 0.00 79 1016.4
20260506035403 79 119 4.0 12.0 0.00 0.00 0.00 80 1016.3
20260506034904 79 99 3.0 8.0 0.00 0.00 0.00 80 1016.2
20260506034404 79 109 2.0 9.0 0.00 0.00 0.00 80 1016.2
20260506033904 79 114 3.0 8.0 0.00 0.00 0.00 80 1016.2
20260506033404 78 101 1.0 12.0 0.00 0.00 0.00 81 1016.2
20260506032904 78 80 3.0 8.0 0.00 0.00 0.00 81 1016.1
20260506031904 77 92 1.0 7.0 0.00 0.00 0.00 84 1016.1
20260506031405 76 59 0.0 3.0 0.00 0.00 0.00 86 1016.1
20260506030904 75 144 0.0 3.0 0.00 0.00 0.00 87 1016.0
20260506025904 74 144 0.0 1.0 0.00 0.00 0.00 88 1016.0
20260506025404 74 144 0.0 0.0 0.00 0.00 0.00 88 1015.9
20260506024904 74 144 0.0 3.0 0.00 0.00 0.00 88 1015.8
20260506024404 74 0 0.0 0.0 0.00 0.00 0.00 88 1015.8
20260506023904 74 173 0.0 0.0 0.00 0.00 0.00 88 1015.7
20260506023404 74 173 0.0 0.0 0.00 0.00 0.00 87 1015.7
20260506022904 74 126 0.0 0.0 0.00 0.00 0.00 87 1015.6
20260506021904 74 124 0.0 0.0 0.00 0.00 0.00 87 1015.5
20260506020904 74 124 0.0 0.0 0.00 0.00 0.00 87 1015.4
20260506015904 74 144 0.0 3.0 0.00 0.00 0.00 87 1015.4
20260506015404 74 140 0.0 3.0 0.00 0.00 0.00 87 1015.4
20260506014904 74 148 0.0 0.0 0.00 0.00 0.00 87 1015.4
20260506014404 74 153 0.0 1.0 0.00 0.00 0.00 87 1015.4
20260506013904 74 184 0.0 0.0 0.00 0.00 0.00 87 1015.4
20260506013404 74 184 0.0 0.0 0.00 0.00 0.00 87 1015.3
20260506012904 74 185 0.0 0.0 0.00 0.00 0.00 86 1015.3
20260506012404 75 114 0.0 0.0 0.00 0.00 0.00 86 1015.3
20260506011904 75 113 0.0 3.0 0.00 0.00 0.00 86 1015.3
20260506011404 75 129 1.0 3.0 0.00 0.00 0.00 87 1015.2
20260506010904 75 157 0.0 3.0 0.00 0.00 0.00 87 1015.2
20260506005904 75 123 0.0 3.0 0.00 0.00 0.00 87 1015.1
20260506004905 74 106 0.0 3.0 0.00 0.00 0.00 87 1015.0
20260506004404 74 126 0.0 0.0 0.00 0.00 0.00 87 1015.1
20260506003904 74 126 0.0 6.0 0.00 0.00 0.00 87 1015.0
20260506003404 74 155 0.0 0.0 0.00 0.00 0.00 87 1015.0
20260506002904 74 165 0.0 3.0 0.00 0.00 0.00 87 1015.0
20260506002404 74 124 0.0 5.0 0.00 0.00 0.00 87 1015.0
20260506001904 74 139 1.0 3.0 0.00 0.00 0.00 87 1015.0
20260506001405 74 145 1.0 6.0 0.00 0.00 0.00 87 1015.1
20260506000905 74 147 0.0 5.0 0.00 0.00 0.00 87 1015.0
20260506000404 74 170 0.0 5.0 0.00 0.00 0.00 87 1015.1
20260505235905 74 130 1.0 5.0 0.00 0.00 0.00 87 1015.1
20260505235404 74 138 1.0 6.0 0.00 0.00 0.00 87 1015.2
20260505234905 74 166 0.0 5.0 0.00 0.00 0.00 87 1015.2
20260505234404 74 150 1.0 3.0 0.00 0.00 0.00 87 1015.3
20260505233904 74 132 1.0 6.0 0.00 0.00 0.00 87 1015.2
20260505232905 74 140 1.0 5.0 0.00 0.00 0.00 87 1015.2
20260505232404 74 160 2.0 7.0 0.00 0.00 0.00 87 1015.3
20260505231904 74 87 1.0 5.0 0.00 0.00 0.00 87 1015.2
20260505231404 74 141 1.0 7.0 0.00 0.00 0.00 88 1015.1
20260505230905 73 114 1.0 6.0 0.00 0.00 0.00 88 1015.3
20260505230404 73 71 0.0 3.0 0.00 0.00 0.00 88 1015.3
20260505225904 73 150 0.0 3.0 0.00 0.00 0.00 88 1015.4
20260505225404 73 162 1.0 6.0 0.00 0.00 0.00 88 1015.5
20260505224904 73 149 1.0 6.0 0.00 0.00 0.00 88 1015.6
20260505224404 73 148 0.0 3.0 0.00 0.00 0.00 88 1015.6
20260505223904 73 159 1.0 3.0 0.00 0.00 0.00 88 1015.6
20260505223404 73 148 0.0 3.0 0.00 0.00 0.00 88 1015.7
20260505222904 73 151 0.0 3.0 0.00 0.00 0.00 88 1015.7
20260505222404 73 148 0.0 5.0 0.00 0.00 0.00 88 1015.7
20260505220904 73 157 0.0 3.0 0.00 0.00 0.00 88 1015.9
20260505220404 73 151 0.0 3.0 0.00 0.00 0.00 88 1015.8
20260505215404 73 149 0.0 1.0 0.00 0.00 0.00 87 1015.8
20260505214904 74 139 0.0 0.0 0.00 0.00 0.00 87 1015.9
20260505213404 74 165 0.0 0.0 0.00 0.00 0.00 87 1016.1
20260505212904 74 156 0.0 5.0 0.00 0.00 0.00 87 1016.1
20260505212404 74 135 1.0 3.0 0.00 0.00 0.00 87 1016.1
20260505211904 74 148 1.0 6.0 0.00 0.00 0.00 87 1016.2
20260505211404 74 178 0.0 3.0 0.00 0.00 0.00 87 1016.4
20260505210904 74 146 1.0 3.0 0.00 0.00 0.00 87 1016.4
20260505210403 74 73 0.0 5.0 0.00 0.00 0.00 87 1016.4
20260505205904 74 126 0.0 1.0 0.00 0.00 0.00 87 1016.5
20260505204904 74 165 0.0 0.0 0.00 0.00 0.00 87 1016.5
20260505204404 74 155 0.0 2.0 0.00 0.00 0.00 87 1016.5
20260505203905 74 162 1.0 6.0 0.00 0.00 0.00 87 1016.5
20260505203403 74 156 1.0 7.0 0.00 0.00 0.00 87 1016.5
20260505201904 74 156 0.0 0.0 0.00 0.00 0.00 87 1016.7
20260505201405 73 160 0.0 3.0 0.00 0.00 0.00 87 1016.6
20260505200904 74 174 0.0 0.0 0.00 0.00 0.00 87 1016.7
20260505200405 74 187 0.0 0.0 0.00 0.00 0.00 87 1016.7
20260505195904 74 150 0.0 0.0 0.00 0.00 0.00 87 1016.8
20260505195404 74 152 0.0 0.0 0.00 0.00 0.00 87 1016.8
20260505194904 74 152 0.0 0.0 0.00 0.00 0.00 87 1016.7
20260505194404 74 153 0.0 0.0 0.00 0.00 0.00 87 1016.8
20260505192904 73 137 0.0 0.0 0.00 0.00 0.00 87 1016.8
20260505192404 73 168 0.0 0.0 0.00 0.00 0.00 87 1016.9
20260505191404 73 170 0.0 3.0 0.00 0.00 0.00 87 1016.9
20260505185904 73 170 0.0 3.0 0.00 0.00 0.00 86 1016.9
20260505185403 73 172 0.0 5.0 0.00 0.00 0.00 86 1016.9
20260505184904 73 184 0.0 2.0 0.00 0.00 0.00 86 1016.9
20260505184404 73 160 0.0 1.0 0.00 0.00 0.00 86 1016.9
20260505183904 73 161 0.0 0.0 0.00 0.00 0.00 86 1017.0
20260505183404 73 162 0.0 0.0 0.00 0.00 0.00 86 1017.0
20260505182904 73 162 0.0 0.0 0.00 0.00 0.00 86 1017.0
20260505182404 73 162 0.0 0.0 0.00 0.00 0.00 86 1016.9
20260505181904 73 162 0.0 0.0 0.00 0.00 0.00 86 1016.8
20260505181403 73 162 0.0 0.0 0.00 0.00 0.00 86 1016.8
20260505180405 73 174 0.0 0.0 0.00 0.00 0.00 86 1016.7
20260505175904 73 171 0.0 0.0 0.00 0.00 0.00 85 1016.7
20260505175404 73 164 0.0 1.0 0.00 0.00 0.00 85 1016.7
20260505174904 73 165 0.0 2.0 0.00 0.00 0.00 85 1016.8
20260505174405 73 163 0.0 1.0 0.00 0.00 0.00 85 1016.8